| time (UTC) | temp F | wind direction | speed MPH | gust MPH | rain 1hr in | rain 24hr in | rain mn in | humidity % | barometer mb |
| 20260508201612 | 71 | 40 | 1.0 | 3.0 | 0.00 | 0.00 | 0.00 | 44 | 1011.5 |
| 20260508200133 | 72 | 191 | 0.0 | 6.0 | 0.00 | 0.00 | 0.00 | 42 | 1011.7 |
| 20260508194556 | 72 | 4 | 3.0 | 5.0 | 0.00 | 0.00 | 0.00 | 40 | 1011.8 |
| 20260508193058 | 72 | 0 | 0.0 | 6.0 | 0.00 | 0.00 | 0.00 | 42 | 1012.1 |
| 20260508191559 | 72 | 155 | 1.0 | 5.0 | 0.00 | 0.00 | 0.00 | 42 | 1012.5 |
| 20260508190103 | 72 | 221 | 2.0 | 6.0 | 0.00 | 0.00 | 0.00 | 41 | 1012.6 |
| 20260508184555 | 71 | 237 | 1.0 | 6.0 | 0.00 | 0.00 | 0.00 | 44 | 1012.5 |
| 20260508183059 | 71 | 270 | 2.0 | 4.0 | 0.00 | 0.00 | 0.00 | 43 | 1012.5 |
| 20260508181614 | 70 | 268 | 1.0 | 5.0 | 0.00 | 0.00 | 0.00 | 45 | 1012.8 |
| 20260508180118 | 70 | 169 | 1.0 | 6.0 | 0.00 | 0.00 | 0.00 | 41 | 1013.0 |
| 20260508174606 | 70 | 276 | 3.0 | 6.0 | 0.00 | 0.03 | 0.00 | 42 | 1013.7 |
| 20260508173054 | 70 | 0 | 1.0 | 5.0 | 0.00 | 0.03 | 0.00 | 47 | 1013.4 |
| 20260508171557 | 69 | 221 | 1.0 | 4.0 | 0.00 | 0.03 | 0.00 | 46 | 1013.9 |
| 20260508170058 | 68 | 169 | 1.0 | 7.0 | 0.00 | 0.03 | 0.00 | 46 | 1013.9 |
| 20260508164557 | 67 | 321 | 1.0 | 7.0 | 0.00 | 0.16 | 0.00 | 48 | 1014.2 |
| 20260508163055 | 67 | 294 | 2.0 | 8.0 | 0.00 | 0.16 | 0.00 | 47 | 1014.1 |
| 20260508161557 | 67 | 265 | 2.0 | 7.0 | 0.00 | 0.16 | 0.00 | 47 | 1014.5 |
| 20260508160056 | 67 | 49 | 2.0 | 8.0 | 0.00 | 0.16 | 0.00 | 51 | 1014.7 |
| 20260508154558 | 66 | 1 | 2.0 | 10.0 | 0.00 | 0.36 | 0.00 | 57 | 1014.7 |
| 20260508153103 | 66 | 0 | 1.0 | 6.0 | 0.00 | 0.36 | 0.00 | 56 | 1014.7 |
| 20260508151604 | 65 | 132 | 3.0 | 9.0 | 0.00 | 0.36 | 0.00 | 58 | 1014.5 |
| 20260508150057 | 65 | 142 | 3.0 | 10.0 | 0.00 | 0.36 | 0.00 | 60 | 1014.7 |
| 20260508144600 | 64 | 150 | 1.0 | 7.0 | 0.00 | 0.63 | 0.00 | 63 | 1014.8 |
| 20260508143059 | 63 | 99 | 1.0 | 10.0 | 0.00 | 0.63 | 0.00 | 64 | 1014.8 |
| 20260508141607 | 62 | 107 | 3.0 | 9.0 | 0.00 | 0.63 | 0.00 | 67 | 1014.7 |
| 20260508140115 | 61 | 182 | 3.0 | 5.0 | 0.00 | 0.63 | 0.00 | 73 | 1014.6 |
| 20260508134647 | 60 | 164 | 0.0 | 6.0 | 0.00 | 0.78 | 0.00 | 77 | 1014.5 |
| 20260508133102 | 59 | 128 | 1.0 | 6.0 | 0.00 | 0.78 | 0.00 | 80 | 1014.5 |
| 20260508131606 | 59 | 46 | 1.0 | 7.0 | 0.00 | 0.78 | 0.00 | 80 | 1014.4 |
| 20260508130053 | 58 | 121 | 2.0 | 4.0 | 0.00 | 0.78 | 0.00 | 82 | 1014.5 |
| 20260508124556 | 58 | 0 | 1.0 | 4.0 | 0.00 | 0.78 | 0.00 | 88 | 1014.0 |
| 20260508123055 | 57 | 0 | 0.0 | 4.0 | 0.00 | 0.78 | 0.00 | 92 | 1013.8 |
| 20260508121601 | 56 | 0 | 0.0 | 2.0 | 0.00 | 0.78 | 0.00 | 96 | 1013.8 |
| 20260508114555 | 54 | 0 | 0.0 | 0.0 | 0.00 | 0.81 | 0.00 | 99 | 1013.5 |
| 20260508113058 | 53 | 0 | 0.0 | 0.0 | 0.00 | 0.81 | 0.00 | 98 | 1013.2 |
| 20260508111559 | 52 | 0 | 0.0 | 0.0 | 0.00 | 0.81 | 0.00 | 98 | 1012.9 |
| 20260508104556 | 52 | 0 | 0.0 | 0.0 | 0.00 | 0.85 | 0.00 | 98 | 1012.3 |
| 20260508103123 | 52 | 0 | 0.0 | 0.0 | 0.00 | 0.85 | 0.00 | 98 | 1012.1 |
| 20260508101614 | 53 | 0 | 0.0 | 0.0 | 0.00 | 0.85 | 0.00 | 98 | 1012.0 |
| 20260508100056 | 53 | 0 | 0.0 | 0.0 | 0.00 | 0.85 | 0.00 | 98 | 1012.0 |
| 20260508094607 | 54 | 0 | 0.0 | 0.0 | 0.00 | 0.95 | 0.00 | 98 | 1011.8 |
| 20260508093056 | 54 | 0 | 0.0 | 0.0 | 0.00 | 0.95 | 0.00 | 98 | 1011.6 |
| 20260508091556 | 54 | 0 | 0.0 | 1.0 | 0.00 | 0.95 | 0.00 | 98 | 1011.4 |
| 20260508090115 | 54 | 0 | 0.0 | 2.0 | 0.00 | 0.95 | 0.00 | 98 | 1011.3 |
| 20260508084600 | 54 | 0 | 0.0 | 3.0 | 0.00 | 1.00 | 0.00 | 98 | 1011.3 |
| 20260508083112 | 54 | 0 | 0.0 | 1.0 | 0.00 | 1.00 | 0.00 | 98 | 1011.0 |
| 20260508081600 | 53 | 0 | 0.0 | 0.0 | 0.00 | 1.00 | 0.00 | 97 | 1010.9 |
| 20260508080054 | 53 | 0 | 0.0 | 0.0 | 0.00 | 1.00 | 0.00 | 97 | 1010.8 |
| 20260508074554 | 53 | 0 | 0.0 | 0.0 | 0.00 | 1.01 | 0.00 | 97 | 1010.6 |
| 20260508073055 | 54 | 0 | 0.0 | 0.0 | 0.00 | 1.01 | 0.00 | 97 | 1010.7 |
| 20260508071555 | 54 | 0 | 0.0 | 0.0 | 0.00 | 1.01 | 0.00 | 97 | 1010.6 |
| 20260508070056 | 54 | 0 | 0.0 | 0.0 | 0.00 | 1.01 | 0.00 | 96 | 1010.7 |
| 20260508064606 | 55 | 0 | 0.0 | 0.0 | 0.00 | 1.01 | 0.00 | 96 | 1010.5 |
| 20260508063054 | 55 | 0 | 0.0 | 0.0 | 0.00 | 1.01 | 0.00 | 96 | 1010.5 |
| 20260508061558 | 55 | 0 | 0.0 | 1.0 | 0.00 | 1.01 | 0.00 | 96 | 1010.7 |
| 20260508060058 | 56 | 0 | 0.0 | 1.0 | 0.00 | 1.01 | 0.00 | 96 | 1010.7 |
| 20260508054604 | 56 | 0 | 0.0 | 0.0 | 0.00 | 1.01 | 0.00 | 96 | 1010.8 |
| 20260508053055 | 55 | 0 | 0.0 | 0.0 | 0.00 | 1.01 | 0.00 | 96 | 1010.7 |
| 20260508051602 | 55 | 0 | 0.0 | 0.0 | 0.00 | 1.01 | 0.00 | 95 | 1010.7 |
| 20260508050100 | 56 | 0 | 0.0 | 0.0 | 0.00 | 1.01 | 0.00 | 95 | 1010.7 |
| 20260508044556 | 56 | 0 | 0.0 | 0.0 | 0.00 | 1.02 | 0.00 | 94 | 1010.6 |
| 20260508043101 | 56 | 0 | 0.0 | 1.0 | 0.00 | 1.02 | 0.00 | 94 | 1010.6 |
| 20260508041600 | 57 | 0 | 0.0 | 2.0 | 0.00 | 1.02 | 0.00 | 93 | 1010.5 |
| 20260508040101 | 57 | 37 | 0.0 | 2.0 | 0.00 | 1.02 | 0.00 | 93 | 1010.2 |
| 20260508034557 | 58 | 0 | 0.0 | 2.0 | 0.00 | 1.02 | 1.02 | 94 | 1010.4 |
| 20260508033055 | 58 | 0 | 0.0 | 5.0 | 0.00 | 1.02 | 1.02 | 94 | 1010.4 |
| 20260508031558 | 58 | 0 | 0.0 | 2.0 | 0.00 | 1.02 | 1.02 | 94 | 1010.1 |
| 20260508030058 | 58 | 85 | 0.0 | 4.0 | 0.00 | 1.02 | 1.02 | 93 | 1009.8 |
| 20260508024556 | 59 | 95 | 0.0 | 8.0 | 0.00 | 1.02 | 1.02 | 92 | 1009.7 |
| 20260508023055 | 59 | 0 | 1.0 | 5.0 | 0.00 | 1.02 | 1.02 | 92 | 1009.1 |
| 20260508021558 | 59 | 0 | 0.0 | 4.0 | 0.00 | 1.02 | 1.02 | 92 | 1009.1 |
| 20260508020100 | 60 | 107 | 0.0 | 8.0 | 0.00 | 1.02 | 1.02 | 91 | 1008.9 |
| 20260508014556 | 61 | 134 | 0.0 | 6.0 | 0.00 | 1.02 | 1.02 | 90 | 1008.8 |
| 20260508013055 | 61 | 134 | 2.0 | 11.0 | 0.00 | 1.02 | 1.02 | 90 | 1008.5 |
| 20260508011555 | 62 | 150 | 2.0 | 13.0 | 0.00 | 1.02 | 1.02 | 89 | 1007.9 |
| 20260508010054 | 63 | 341 | 1.0 | 13.0 | 0.00 | 1.02 | 1.02 | 89 | 1007.0 |
| 20260508004558 | 64 | 72 | 3.0 | 12.0 | 0.00 | 1.02 | 1.02 | 87 | 1006.2 |
| 20260508003106 | 67 | 113 | 4.0 | 14.0 | 0.00 | 1.02 | 1.02 | 84 | 1005.7 |
| 20260508001558 | 73 | 0 | 0.0 | 2.0 | 0.00 | 1.02 | 1.02 | 85 | 1005.2 |
| 20260507234557 | 75 | 0 | 0.0 | 3.0 | 0.00 | 1.02 | 1.02 | 81 | 1004.3 |
| 20260507233102 | 76 | 273 | 1.0 | 3.0 | 0.00 | 1.02 | 1.02 | 79 | 1004.3 |
| 20260507231556 | 76 | 267 | 1.0 | 4.0 | 0.00 | 1.02 | 1.02 | 78 | 1004.2 |
| 20260507230100 | 76 | 260 | 1.0 | 4.0 | 0.00 | 1.02 | 1.02 | 77 | 1004.1 |
| 20260507224615 | 77 | 271 | 3.0 | 7.0 | 0.00 | 1.02 | 1.02 | 76 | 1004.2 |
| 20260507223057 | 77 | 278 | 2.0 | 7.0 | 0.00 | 1.02 | 1.02 | 76 | 1003.8 |
| 20260507221557 | 77 | 305 | 3.0 | 9.0 | 0.00 | 1.02 | 1.02 | 74 | 1003.9 |
| 20260507220057 | 78 | 302 | 2.0 | 7.0 | 0.00 | 1.02 | 1.02 | 74 | 1003.7 |
| 20260507214554 | 78 | 0 | 0.0 | 4.0 | 0.00 | 1.02 | 1.02 | 78 | 1003.6 |
| 20260507213056 | 77 | 284 | 4.0 | 8.0 | 0.00 | 1.02 | 1.02 | 78 | 1003.8 |
| 20260507211623 | 77 | 265 | 4.0 | 7.0 | 0.00 | 1.02 | 1.02 | 79 | 1004.2 |
| 20260507210057 | 76 | 279 | 2.0 | 4.0 | 0.00 | 1.02 | 1.02 | 79 | 1004.3 |
| 20260507204604 | 77 | 275 | 3.0 | 7.0 | 0.00 | 1.02 | 1.02 | 78 | 1004.2 |
| 20260507203110 | 77 | 272 | 3.0 | 7.0 | 0.00 | 1.02 | 1.02 | 78 | 1003.9 |